This is the latest recevied weather packets stored in our database for station/object DB0GIS-11. If no packets are shown the sender has not sent any weather packets the latest 10 day(s).
| Time | Temp. | Humidity | Pressure | Rain* | Wind** | Luminosity | Snow |
|---|---|---|---|---|---|---|---|
| 1788160052 | 66° F | 10% | 757.7 mmHg | 0 in | - | - | - |
| 1788158251 | 64° F | 10% | 757.6 mmHg | 0 in | - | - | - |
| 1788157649 | 63° F | 10% | 757.5 mmHg | 0 in | - | - | - |
| 1788156451 | 62° F | 10% | 757.4 mmHg | 0 in | - | - | - |
| 1788155245 | 62° F | 10% | 757.3 mmHg | 0 in | - | - | - |
| 1788154650 | 62° F | 10% | 757.1 mmHg | 0 in | - | - | - |
| 1788152252 | 62° F | 10% | 757 mmHg | 0 in | - | - | - |
| 1788151652 | 62° F | 10% | 756.9 mmHg | 0 in | - | - | - |
| 1788150453 | 62° F | 10% | 756.7 mmHg | 0 in | - | - | - |
| 1788148056 | 62° F | 10% | 756.6 mmHg | 0.02 in | - | - | - |
| 1788147451 | 62° F | 10% | 756.6 mmHg | 0.04 in | - | - | - |
| 1788146245 | 62° F | 10% | 756.7 mmHg | 0.2 in | - | - | - |
| 1788145678 | 62° F | 10% | 756.9 mmHg | 0.2 in | - | - | - |
| 1788145054 | 62° F | 10% | 756.9 mmHg | 0.24 in | - | - | - |
| 1788143254 | 62° F | 10% | 757 mmHg | 0.22 in | - | - | - |
| 1788142649 | 62° F | 10% | 757 mmHg | 0.1 in | - | - | - |
| 1788142118 | 62° F | 13% | 757 mmHg | 0.14 in | - | - | - |
| 1788139653 | 62° F | 28% | 756.8 mmHg | 0.14 in | - | - | - |
| 1788136650 | 63° F | 41% | 757.1 mmHg | 0.04 in | - | - | - |
| 1788136074 | 63° F | 45% | 757 mmHg | 0.02 in | - | - | - |
| 1788134877 | 63° F | 55% | 757.1 mmHg | 0 in | - | - | - |
| 1788133053 | 65° F | 61% | 756.8 mmHg | 0 in | - | - | - |
| 1788130087 | 65° F | 61% | 757 mmHg | 0 in | - | - | - |
| 1788128867 | 65° F | 62% | 757 mmHg | 0 in | - | - | - |
| 1788127064 | 65° F | 62% | 757.1 mmHg | 0 in | - | - | - |
* Rain latest hour (hover to see other rain measurements)
** Current wind speed in m/s (hover to see current wind gust speed)